Skip Page Navigation
NASA JPL Caltech
NASA Logo - Jet Propulsion Laboratory + View the NASA Portal
+ Near-Earth Object (NEO) Program
Search JPL
JPL Home Earth Solar System Stars & Galaxies Technology
JPL Solar System Dynamics
BODIES ORBITS EPHEMERIDES TOOLS PHYSICAL DATA DISCOVERY FAQ SITE MAP
JPL Small-Body Database Browser
Search: [ help ]  
3691 Bede (1982 FT)
Classification: Amor [NEO]          SPK-ID: 2003691
Ephemeris | Orbit Diagram | Orbital Elements | Physical Parameters | Discovery Circumstances | Close-Approach Data ]

[ hide orbit diagram ]
Orbit Diagram
Note: Make sure you have Java enabled on your browser to see the applet. This applet is provided as a 3D orbit visualization tool. The applet was implemented using 2-body methods, and hence should not be used for determining accurate long-term trajectories (over several years or decades) or planetary encounter circumstances. For accurate long-term ephemerides, please instead use our Horizons system.
Orbit Viewer

Additional Notes: the orbits shown in the applet are color coded. The planets are white lines, and the asteroid/comet is a blue line. The bright white line indicates the portion of the orbit that is above the ecliptic plane, and the darker portion is below the ecliptic plane. Likewise for the asteroid/comet orbit, the light blue indicates the portion above the ecliptic plane, and the dark blue the portion below the ecliptic plane.

Orbit Viewer applet originally written and kindly provided by Osamu Ajiki (AstroArts), and further modified by Ron Baalke (JPL).


Orbital Elements at Epoch 2456400.5 (2013-Apr-18.0) TDB
Reference: JPL 176 (heliocentric ecliptic J2000)
 Element Value Uncertainty (1-sigma)   Units 
e .2842601682477919 6.031e-08  
a 1.774317465786431 4.5115e-09 AU
q 1.269949684436984 1.0718e-07 AU
i 20.3584706147439 7.538e-06 deg
node 348.7817832967219 1.4652e-05 deg
peri 234.9399064320261 1.6605e-05 deg
M 33.73767762069108 8.9194e-06 deg
tp 2456319.598215436947
(2013-Jan-27.09821544)
2.1275e-05 JED
period 863.2675541613745
2.36
3.2925e-06
9.014e-09
d
yr
n .4170201906287602 1.5905e-09 deg/d
Q 2.278685247135877 5.7939e-09 AU
  Orbit Determination Parameters
   # obs. used (total)      1015  
   data-arc span      13838 days (37.89 yr)  
   first obs. used      1975-06-09  
   last obs. used      2013-04-28  
   planetary ephem.      DE405  
   SB-pert. ephem.      SB405-CPV-2  
   condition code      0  
   fit RMS      .48655  
   data source      ORB  
   producer      Otto Matic  
   solution date      2013-Apr-29 01:13:22  

Additional Information
 Earth MOID = .351386 AU 
 T_jup = 3.982 
[ show covariance matrix ]

Ephemeris | Orbit Diagram | Orbital Elements | Physical Parameters | Discovery Circumstances | Close-Approach Data ]

Physical Parameter Table
Parameter Symbol Value Units Sigma Reference Notes
absolute magnitude H 14.9 mag n/a PDS3 (MPC 28110)  
diameter diameter 4.3 km n/a Hazards due to Comets and Asteroids (1994), Ed. T. Gehrels, pp.540-543 based on assumed medium albedo (0.15)
rotation period rot_per 226.8 h n/a Asteroid Lightcurve DataBase (Rev. 2013-May-01) Result based on less than full coverage, so that the period may be wrong by 30 percent or so.
Published Reference List:
[Pravec, P.; Wolf, M.; Sarounova, L. (1998) Icarus 136, 124-153.]
[Pravec, P.; et al. (2005) Icarus 173, 108-131.]
SMASSII spectral type spec_B Xc   n/a EAR-A-5-DDR-TAXONOMY-V4.0 based on a high-resolution spectrum by Xu et al. (1995) or Bus and Binzel (2002)

3691 Bede           Discovered 1982 Mar. 29 by L. E. Gonzalez at Cerro El Roble.
The Venerable Bede (c. 672-735), the "Father of English History" who popularized the A.D. reckoning of years, compiled a history of England since the time of Caesar. The name follows a suggestion by B. Hafferty in the BBC Word of Mouth competition in this centenary year of St. Bede's School, Bradford, West Yorkshire.
NOTE: some special characters may not display properly (any characters within {} are an attempt to place the proper accent above a character)
Reference: 20000523/MPCPages.arcLast Updated: 2013-03-29

[ show close-approach data ]
Ephemeris | Orbit Diagram | Orbital Elements | Physical Parameters | Discovery Circumstances | Close-Approach Data ]
ABOUT SSD CREDITS/AWARDS PRIVACY/COPYRIGHT GLOSSARY LINKS
FirstGov 2013-May-19 05:22 UT
(server date/time)  
NASA Home Page
Site Manager:   Donald K. Yeomans
Webmaster  Alan B. Chamberlin